Location: Lussas
(44.6119°N, 4.4726°E)
Time: 15:30:30
(UTC+00:00)

CENTAUR R/B - Pass Details

Date: 26 November 2020
Orbit: 750 x 1438 km, 63.4° (Epoch: 11 January)

Event Time Altitude Azimuth Distance (km) Brightness Sun altitude
Exits shadow 06:19:39 - 303° (WNW) 3,697 4.8 -6.2°
Reaches altitude 10° 06:20:56 10° 297° (WNW) 3,410 4.6 -6.0°
Maximum altitude 06:26:38 20° 254° (WSW) 2,780 4.5 -5.1°
Drops below altitude 10° 06:32:33 10° 211° (SSW) 3,539 5.4 -4.1°
Sets 06:36:27 0° 196° (SSW) 4,506 6.1 -3.5°
